Hourly Data Report for February 14, 2017

All times are specified in Local Standard Time (LST). Add 1 hour to adjust for Daylight Saving Time where and when it is observed.

TORONTO INTL A
ONTARIO

43°40'36.000" N
79°37'50.000" W
173.40 m
6158731
71624
YYZ

Download Data

Hourly Data (February 2017)
Hourly Data Report for February 14, 2017
TIME Temp Definition
°C
Dew Point Definition
°C
Rel Hum Definition
%
Wind Dir Definition
10's deg

Wind Spd Definition
km/h
Visibility Definition
km
Stn Press Definition
kPa
Hmdx Definition


Wind Chill Definition


Weather Definition


00:00 -5.1 -8.9 75 17 6 24.1 99.42   -8 LegendNANA
01:00 -5.4 -8.5 79 12 5 24.1 99.31   -8 Clear
02:00 -5.5 -8.4 80 14 5 24.1 99.22   -8 LegendNANA
03:00 -6.6 -8.6 86 19 4 24.1 99.17   -9 LegendNANA
04:00 -5.4 -7.2 87 14 4 24.1 99.01   -7 Cloudy
05:00 -4.1 -6.1 86 16 8 24.1 98.87   -8 LegendNANA
06:00 -3.3 -5.2 87 17 9 24.1 98.77   -7 LegendNANA
07:00 -1.8 -4.5 82 18 10 19.3 98.70   -5 Mostly Cloudy
08:00 -0.9 -3.8 81 20 9 19.3 98.66   -4 LegendNANA
09:00 -0.2 -3.6 78 21 13 19.3 98.58   -4 LegendNANA
10:00 0.6 -3.2 76 22 18 24.1 98.46     Mostly Cloudy
11:00 2.2 -3.1 68 21 22 24.1 98.34     LegendNANA
12:00 3.5 -2.9 63 22 25 24.1 98.25     LegendNANA
13:00 3.7 -2.9 62 25 28 24.1 98.15     Mostly Cloudy
14:00 3.8 -2.6 63 24 28 24.1 98.06     LegendNANA
15:00 3.6 -2.4 65 25 32 24.1 98.08     LegendNANA
16:00 3.2 -1.9 69 25 23 24.1 98.05     Cloudy
17:00 3.0 -1.6 72 24 17 24.1 98.05     LegendNANA
18:00 3.1 -1.3 73 24 13 24.1 98.05     LegendNANA
19:00 3.7 -1.1 71 21 11 24.1 98.05     Mostly Cloudy
20:00 3.1 -0.7 76 22 14 24.1 98.02     LegendNANA
21:00 2.8 -0.5 79 20 10 24.1 97.96     Rain
22:00 2.4 -0.2 83 24 22 24.1 97.88     Rain Showers
23:00 1.4 -0.4 88 24 10 24.1 97.81     LegendNANA

Notes on Data Quality.

Legend

  • E = Estimated
  • M = Missing
  • NA = Not Available
Date modified: